Regional Weather Roundup
Issued by NWS

Home | Current Version | Previous Version | Text Only | Print | Product List | Glossary On
Versions: 1 2 3 4 5 6 7 8 9 10 11 12 13 14 15 16 17 18 19 20 21 22 23 24 25 26 27 28 29 30 31 32 33 34 35 36 37 38 39 40 41 42 43 44 45 46 47 48 49 50
000
ASUS43 KTOP 220659
RWRKS

WEATHER ROUNDUP FOR KANSAS
NATIONAL WEATHER SERVICE GOODLAND KS
100 AM CST MON JAN 22 2018

NOTE:  "FAIR" INDICATES FEW OR NO CLOUDS BELOW 12,000 FEET WITH NO
SIGNIFICANT WEATHER AND/OR OBSTRUCTIONS TO VISIBILITY.

KSZ001>006-013>018-027>032-041>047-220800-
NORTHWEST KANSAS

CITY           SKY/WX    TMP DP  RH WIND       PRES   REMARKS
GOODLAND       FOG       26  25  96 NW39G52   29.72S VSB 1/4 WCI   8
HAYS           LGT RAIN  33  33 100 NW12      29.52F WCI  24
HILL CITY      LGT SNOW  33  32  96 N23       29.55S FOG     WCI  21
RUSSELL        CLOUDY    35  35 100 W12       29.49F FOG     WCI  27
$$

KSZ061>065-074>080-084>089-220800-
SOUTHWEST KANSAS

CITY           SKY/WX    TMP DP  RH WIND       PRES   REMARKS
DODGE CITY     CLOUDY    32  26  78 NW30G41   29.62S WCI  18
GARDEN CITY    CLOUDY    29  25  85 NW33G44   29.68R WCI  13
GREAT BEND     CLOUDY    34  33  96 W15       29.52F WCI  24
LIBERAL        MIX PCPN  31  25  78 NW29G38   29.79S WCI  16
$$

KSZ066>073-081>083-090>101-220800-
SOUTHEAST KANSAS

CITY           SKY/WX    TMP DP  RH WIND       PRES   REMARKS
CHANUTE          N/A     45  42  89 SW5       29.55S
COFFEYVILLE    CLEAR     55  20  25 SW20G25   29.58S
HUTCHINSON     PTCLDY    33  31  92 SW10      29.53F WCI  25
MEDICINE LODGE   N/A     44  30  57 W13       29.59F
PARSONS        PTCLDY    53  23  31 SW10      29.57F
WICHITA INTL   MOCLDY    34  31  88 SW14      29.56F WCI  25
WICHITA JABRA  CLEAR     35  34  96 SW9       29.56F
WICHITA MCCONL CLEAR     36  32  86 SW13      29.56F WCI  27
WINFIELD       PTCLDY    37  32  82 SW10      29.63S WCI  30
$$

KSZ007>012-019>026-033>040-048>060-102>105-220800-
NORTHEAST KANSAS

CITY           SKY/WX    TMP DP  RH WIND       PRES   REMARKS
CONCORDIA      CLOUDY    38  38 100 E6        29.48F FOG
EMPORIA        CLEAR     34  32  92 W9        29.53R
LAWRENCE       CLOUDY    47  42  83 NE17      29.45F
MANHATTAN      MOCLDY    38  37  97 SW12      29.50S FOG     WCI  30
OLATHE IND     MOCLDY    47  46  97 NW3       29.50F
OLATHE EXE     CLOUDY    50  49  96 VRB3      29.50F
SALINA         CLOUDY    37  37 100 S9        29.52F FOG
TOPEKA BILLARD CLOUDY    40  40 100 SW6       29.47F
TOPEKA FORBES  CLOUDY    40  38  93 W8        29.48F
$$




USA.gov is the U.S. government's official web portal to all federal, state and local government web resources and services.